This is the latest recevied weather packets stored in our database for station/object SR3WXA. If no packets are shown the sender has not sent any weather packets the latest 10 day(s).
| Time | Temp. | Humidity | Pressure | Rain* | Wind** | Luminosity | Snow |
|---|---|---|---|---|---|---|---|
| 1788159326 | 20° C | 76% | 1012.7 hPa | 0 mm | - | 359 W/m² | - |
| 1788159094 | 19.44° C | 76% | 1012.7 hPa | 0 mm | - | 323 W/m² | - |
| 1788159026 | 19.44° C | 76% | 1012.7 hPa | 0 mm | - | 323 W/m² | - |
| 1788158761 | 19.44° C | 75% | 1012.6 hPa | 0 mm | - | 179 W/m² | - |
| 1788158727 | 19.44° C | 75% | 1012.6 hPa | 0 mm | - | 179 W/m² | - |
| 1788158480 | 19.44° C | 75% | 1012.6 hPa | 0 mm | - | 172 W/m² | - |
| 1788158426 | 19.44° C | 75% | 1012.6 hPa | 0 mm | - | 172 W/m² | - |
| 1788158186 | 20° C | 76% | 1012.6 hPa | 0 mm | - | 178 W/m² | - |
| 1788158127 | 20° C | 76% | 1012.6 hPa | 0 mm | - | 178 W/m² | - |
| 1788157888 | 20° C | 76% | 1012.6 hPa | 0 mm | - | 209 W/m² | - |
| 1788157826 | 20° C | 76% | 1012.6 hPa | 0 mm | - | 209 W/m² | - |
| 1788157085 | 20° C | 75% | 1012.7 hPa | 0 mm | - | 202 W/m² | - |
| 1788157031 | 20° C | 75% | 1012.7 hPa | 0 mm | - | 202 W/m² | - |
| 1788156802 | 19.44° C | 77% | 1012.7 hPa | 0 mm | - | 211 W/m² | - |
| 1788156731 | 19.44° C | 77% | 1012.7 hPa | 0 mm | - | 211 W/m² | - |
| 1788156431 | 19.44° C | 79% | 1012.7 hPa | 0 mm | - | 214 W/m² | - |
| 1788156131 | 19.44° C | 80% | 1012.7 hPa | 0 mm | - | 243 W/m² | - |
| 1788155541 | 18.89° C | 83% | 1012.7 hPa | 0 mm | - | 134 W/m² | - |
| 1788155114 | 18.33° C | 85% | 1012.7 hPa | 0 mm | - | 153 W/m² | - |
| 1788154846 | 17.78° C | 87% | 1012.8 hPa | 0 mm | - | 162 W/m² | - |
| 1788154814 | 17.78° C | 87% | 1012.8 hPa | 0 mm | - | 162 W/m² | - |
| 1788154575 | 17.78° C | 88% | 1012.9 hPa | 0 mm | - | 190 W/m² | - |
| 1788154514 | 17.78° C | 88% | 1012.9 hPa | 0 mm | - | 190 W/m² | - |
| 1788154215 | 17.22° C | 88% | 1012.8 hPa | 0 mm | - | 134 W/m² | - |
| 1788153978 | 17.22° C | 88% | 1012.8 hPa | 0 mm | - | 91 W/m² | - |
* Rain latest hour (hover to see other rain measurements)
** Current wind speed in m/s (hover to see current wind gust speed)